Погода в Булашово

Россия / Тюменская область     57°46′28″N   67°50′58″E
темп.,
°C
ветер,
м/с
пор.,
м/с
влажн.,
%
обл.,
%
осадки,
мм/ч
давл.,
гПа
погр.,
м
19 апреля, пн
пн1923:00−6ссв594916 0.0 10301368
02:00−7с38495 0.0 10311316
05:00−7с275213 0.0 10331275
08:00−5ссз4651100 0.0 10331537
11:00−3с5737100 0.1 10332047
14:00−1с5729100 0.0 10322241
17:00−1с5631100 0.0 10332035
20:00−4ссв36475 0.0 1034232
20 апреля, вт
вт2023:00−6ссв12541 0.0 103480
02:00−6з00545 0.0 103414
05:00−6зюз255611 0.0 1034184
08:00−2зюз473939 0.0 1032639
11:00+3з68315 0.0 10291325
14:00+6з693121 0.0 10261752
17:00+7зсз5104040 0.0 10251790
20:00+3з396370 0.0 1024154
21 апреля, ср
ср2123:00+2зсз4126890 0.0 1024296
02:000сз388453 0.0 1024150
05:00−1ссз38925 0.0 1027160
08:00+2с468172 0.0 1029552
11:00+4с346854 0.0 1030855
14:00+6ссз455611 0.0 10311179
17:00+7с34490 0.0 10331164
20:00+4ссз22633 0.0 103419
22 апреля, чт
чт2223:00+2всв22700 0.0 103611
02:000юв24770 0.0 103762
05:000юв36780 0.0 1038112
08:00+4ююв36578 0.0 1039402
11:00+9ююв45445 0.0 10391230
14:00+11ю45385 0.0 10381593
17:00+12ю46385 0.0 10381665
20:00+8ююв4105311 0.0 1038245
23 апреля, пт
пт2323:00+6ююв51358100 0.0 1038362
02:00+5ююв41261100 0.0 1038338
05:00+3ююв4116492 0.0 1038291
08:00+7ю511525 0.0 1038433
11:00+12ю57395 0.0 1036933
14:00+15ю573744 0.0 10351931
17:00+15ю5737100 0.0 10332169
20:00+12ю51046100 0.0 1033456